RH
25 23 23 24 23 22 21 19 19 20 21 23 26 29 30 32 33 32 30 27 24 20 16 13 10 8 7 6 5 5 5 5 5 4 4 4 4 4 3 3 3 3
27 26 26 25 23 21 19 18 18 18 19 21 23 25 29 32 33 31 29 27 23 19 15 11 9 7 6 6 6 6 6 5 5 5 4 4 4 4 4 4 3 3
29 29 27 26 23 20 18 18 18 18 19 20 22 24 28 31 33 32 30 27 22 17 13 9 7 6 6 6 6 6 6 6 6 5 5 5 5 4 4 4 3 3
31 30 28 26 24 21 20 19 19 19 19 20 21 24 29 32 33 32 29 25 19 15 11 8 7 7 7 7 7 7 6 6 6 6 6 6 5 5 4 4 3 3
33 32 29 27 25 22 22 21 20 19 19 19 21 25 29 31 31 30 27 21 16 12 9 8 7 7 8 8 7 7 7 7 7 6 6 6 5 5 4 4 3 3
36 33 30 27 26 25 25 23 21 20 19 20 23 27 29 30 30 28 24 19 15 11 9 8 8 8 8 8 7 7 7 7 7 7 6 6 5 4 3 3 3 3
38 35 31 28 27 27 27 25 23 22 21 23 27 30 30 30 29 27 22 18 14 10 8 8 9 9 8 8 7 7 7 7 7 6 6 5 4 4 3 3 3 3
39 36 32 29 28 28 28 27 25 23 23 26 30 30 30 30 29 25 21 16 12 9 9 9 9 9 8 8 7 7 7 7 6 6 5 5 4 4 4 3 3 3
39 36 33 31 30 29 29 28 25 24 25 27 29 29 30 29 27 23 18 14 10 9 9 9 9 9 8 8 7 7 7 6 6 6 5 5 4 4 3 3 3 3
38 36 35 34 32 30 30 27 25 26 26 27 28 28 29 27 24 20 15 12 10 9 10 10 9 9 8 8 8 7 7 6 6 5 5 5 4 4 3 3 3 3
38 38 37 36 34 32 28 25 25 26 26 27 27 27 27 25 21 16 12 10 9 9 10 10 9 9 9 8 8 7 6 6 6 5 5 5 4 4 4 3 3 3
38 39 39 38 35 31 26 24 25 25 25 26 26 26 25 21 17 13 10 10 10 10 10 10 9 9 8 8 7 6 6 6 6 5 5 5 4 4 4 3 3 3
40 40 40 39 35 30 26 25 24 24 24 25 25 24 22 18 14 12 11 10 10 10 10 10 9 9 8 8 7 6 6 6 5 5 5 5 5 4 4 4 3 3
42 42 42 39 35 30 27 25 23 23 23 24 23 21 18 15 13 12 11 11 11 10 10 10 10 9 8 7 6 6 6 6 6 5 5 5 5 4 4 4 3 3
43 44 43 38 34 31 27 24 22 21 21 21 20 17 15 13 12 12 11 11 11 10 11 10 10 9 8 6 6 5 5 6 6 5 6 6 5 5 4 3 3 3
45 45 42 37 34 31 27 22 19 18 18 17 16 14 13 12 12 12 11 11 11 11 11 11 10 8 7 6 5 5 5 6 6 6 6 6 5 5 4 3 3 3
46 45 41 37 34 31 26 21 18 16 16 15 14 13 13 12 12 12 12 11 11 11 11 11 9 7 6 5 5 5 5 6 6 7 6 6 5 5 4 4 3 4
47 45 41 38 35 31 26 21 17 15 14 13 13 13 12 12 12 12 12 11 11 11 11 10 8 6 5 5 5 5 5 5 6 7 7 6 5 5 4 4 4 4
47 44 41 38 35 30 25 20 16 14 13 13 12 12 13 12 12 12 12 12 12 11 11 9 7 6 5 5 5 5 5 6 6 6 7 6 5 5 4 4 4 4
47 44 41 38 34 29 24 19 15 13 12 12 12 13 13 12 12 12 12 12 12 11 9 8 6 6 5 5 5 6 5 6 6 6 6 6 5 5 4 4 4 4
46 43 41 38 33 28 22 17 14 13 12 12 13 13 13 13 13 13 13 13 12 10 8 7 6 6 5 5 5 6 6 6 6 6 6 6 6 5 4 4 5 4
44 43 41 36 31 26 21 16 13 13 12 13 13 13 13 13 13 13 13 13 11 9 7 7 7 6 5 5 5 5 6 6 6 6 6 6 5 5 5 4 5 5
43 42 39 34 29 24 19 15 13 13 13 13 14 14 14 13 13 14 14 12 9 8 7 7 7 6 5 5 5 6 6 6 7 6 6 6 5 5 5 5 5 5
41 41 37 31 27 23 18 15 13 13 13 13 14 14 13 14 14 14 13 11 9 8 7 7 7 6 5 5 5 6 6 6 7 6 6 6 5 5 5 5 5 5
41 39 34 30 26 21 17 15 13 13 14 14 14 14 13 14 15 14 12 10 8 8 7 6 7 6 5 5 5 6 6 6 7 7 6 6 6 5 5 5 5 6
40 37 33 29 25 20 16 14 13 13 14 14 13 13 13 15 15 13 11 10 9 8 7 6 6 6 6 6 6 6 6 6 7 6 6 6 6 5 5 5 6 6
Wind_Speed
80 81 82 84 86 88 90 91 92 93 94 95 96 97 98 98 99 100 101 101 103 104 104 105 105 106 106 106 106 106 106 107 107 107 106 106 106 106 105 105 105 105
77 79 80 81 84 86 87 88 90 91 92 93 95 95 96 96 97 98 98 99 101 102 102 102 102 103 103 103 103 103 103 104 105 105 104 104 105 105 104 104 103 103
77 78 79 81 82 84 85 86 87 89 90 91 92 93 93 94 95 96 96 98 99 100 100 100 99 99 99 100 100 100 100 101 102 103 103 103 104 104 104 103 102 102
77 78 79 80 81 82 83 84 85 87 88 89 90 91 91 93 93 94 95 96 97 98 98 97 97 97 97 97 97 97 98 99 99 100 101 102 103 103 103 102 101 100
78 79 80 80 81 81 82 83 84 85 86 87 88 89 90 91 92 93 94 95 95 95 95 95 95 95 95 96 96 95 95 96 97 98 99 100 101 102 101 100 99 99
79 80 80 81 81 81 81 82 83 84 85 86 87 88 89 90 91 91 92 93 93 93 93 93 93 93 94 94 94 93 93 93 94 95 96 98 99 99 98 97 96 96
80 80 81 81 81 81 81 82 83 84 85 85 86 88 89 89 90 90 91 92 92 92 92 91 91 92 92 92 92 91 90 90 91 93 94 96 96 96 95 94 93 93
80 81 81 81 81 81 82 82 83 84 84 84 86 87 88 88 89 90 91 91 91 91 90 90 90 90 91 91 90 89 88 88 89 90 92 93 93 93 92 91 89 89
81 81 81 81 81 81 82 83 83 84 84 84 85 86 87 88 89 89 90 90 90 90 89 89 89 89 89 89 88 87 86 86 86 88 89 89 90 89 88 87 86 85
81 82 81 81 81 82 83 83 83 83 83 84 85 86 86 87 88 89 89 89 89 89 88 88 88 88 88 87 87 86 84 84 84 85 86 86 86 86 85 84 83 82
82 82 82 82 82 83 84 84 83 83 83 84 85 85 86 87 87 88 89 89 88 88 87 87 87 87 86 86 85 85 83 82 82 83 83 84 84 84 82 81 80 78
82 82 82 82 83 84 84 84 83 83 84 84 84 85 85 86 87 87 88 88 88 87 87 86 86 86 86 85 84 83 82 80 80 81 81 82 82 82 80 79 77 75
82 82 83 83 84 85 84 84 84 84 84 84 84 84 85 86 86 87 88 88 87 87 86 86 86 86 85 84 83 82 80 78 79 79 79 80 81 80 78 76 74 72
83 83 83 84 85 85 85 85 84 84 84 84 84 84 85 86 87 88 88 88 87 86 86 85 85 85 85 83 82 81 78 77 77 77 77 79 79 78 77 74 72 69
83 83 85 86 86 86 86 85 85 84 84 84 84 84 85 86 87 88 88 87 87 86 86 85 85 85 84 82 81 79 76 76 76 76 76 77 78 77 75 73 70 67
83 84 86 87 87 87 86 86 85 84 84 83 84 84 85 86 87 88 87 87 86 85 85 85 85 85 83 81 80 77 74 73 74 75 75 76 76 75 74 72 69 66
84 85 87 88 88 87 87 86 85 84 83 83 84 84 85 87 87 87 87 86 86 85 85 85 85 84 82 80 78 75 72 71 71 73 75 75 74 74 73 71 67 64
85 87 88 89 89 88 87 87 85 84 84 84 84 85 86 87 87 87 86 86 85 84 84 85 85 83 81 78 76 74 71 69 68 70 74 75 74 72 71 69 66 63
86 88 89 89 90 89 88 87 85 84 84 84 84 85 86 86 86 86 86 86 85 84 84 84 84 82 79 77 74 72 70 68 67 68 71 73 73 72 70 67 64 61
87 88 89 90 90 89 88 87 85 85 84 84 85 85 86 86 86 86 86 86 85 84 83 83 83 80 77 75 72 70 68 67 66 67 69 71 72 71 69 66 62 60
88 89 90 91 90 89 88 86 85 85 85 85 85 86 86 86 85 85 85 86 85 84 83 82 82 79 75 73 70 68 66 66 66 66 67 69 70 70 68 65 62 60
88 89 90 91 90 89 87 86 85 85 85 85 85 86 86 85 85 85 85 85 85 83 82 81 80 78 73 71 69 66 64 65 65 65 66 67 68 68 66 63 61 60
89 90 91 91 90 89 87 86 86 85 85 86 85 86 85 85 84 84 85 85 84 82 81 79 78 76 73 69 67 65 63 63 64 65 65 66 66 65 63 62 61 60
89 90 91 91 90 88 87 86 86 86 86 86 86 85 85 84 84 84 84 85 83 81 79 77 75 75 72 69 66 64 61 61 62 64 65 65 64 63 61 60 59 58
90 91 92 91 90 88 87 87 86 86 86 86 85 84 84 83 83 83 84 84 83 81 78 75 73 73 71 68 65 63 61 60 61 63 64 63 62 61 59 58 57 55
91 92 92 91 89 87 87 87 87 86 86 86 85 84 83 82 83 83 82 83 82 80 77 74 71 71 70 67 65 63 61 59 59 61 62 62 61 60 58 56 54 53
Wind_Direction
299 297 296 294 293 292 291 290 290 289 288 288 287 287 287 287 287 287 287 286 286 286 286 285 285 285 284 284 283 282 282 281 281 280 279 278 277 276 275 273 272 270
301 300 298 296 294 293 292 291 290 289 289 288 287 287 287 287 287 287 287 287 287 286 286 286 286 285 285 284 284 284 283 282 282 281 281 280 279 278 276 275 274 272
304 302 300 298 296 295 294 293 291 290 289 288 288 288 288 288 288 288 288 288 288 287 287 287 287 287 286 286 285 285 284 283 283 282 281 281 280 279 278 277 275 274
305 304 302 301 299 298 296 294 293 291 290 290 289 290 290 290 290 290 289 289 289 289 289 289 289 289 288 287 287 286 285 284 283 283 282 281 280 279 278 277 276 275
306 305 304 303 302 300 298 296 294 293 292 292 292 291 291 291 291 290 290 290 290 291 291 291 291 291 290 288 287 286 286 285 284 283 282 281 280 280 279 278 277 276
308 307 306 305 304 302 300 298 296 295 294 294 294 293 292 292 292 292 292 292 292 292 292 292 292 292 290 289 288 287 287 286 285 284 283 282 281 280 279 278 277 276
309 308 308 307 306 304 302 300 298 297 296 296 295 294 294 294 294 294 294 294 294 294 294 294 294 292 291 290 289 288 288 287 286 285 284 283 282 281 280 279 278 276
310 310 310 309 308 306 304 302 300 299 299 298 297 296 296 296 296 296 295 296 296 295 295 295 295 293 292 291 290 290 289 289 288 286 285 284 282 281 280 279 278 277
311 311 311 310 309 307 305 303 302 301 300 299 298 298 298 298 297 297 297 297 297 297 297 297 296 294 293 292 292 291 291 290 289 287 286 284 283 282 281 280 278 277
312 312 312 311 310 308 306 305 304 303 301 300 300 299 299 299 299 299 299 299 298 299 299 298 297 295 294 294 294 293 293 292 291 289 287 285 284 282 281 280 279 278
313 314 313 312 311 309 307 307 306 304 303 302 301 301 301 300 300 300 300 300 300 300 300 299 297 296 296 296 296 295 294 293 292 290 288 286 284 283 282 281 279 278
314 314 314 312 311 309 309 308 307 305 304 304 303 303 302 302 302 302 301 301 302 301 301 300 299 298 298 298 297 297 296 295 293 290 289 287 285 284 283 282 281 279
315 315 314 312 311 310 310 309 308 307 306 305 305 304 304 304 303 303 303 303 303 303 302 301 300 300 300 299 299 298 297 295 293 291 290 288 286 285 284 283 282 280
316 315 314 313 312 312 312 311 310 309 308 307 307 306 306 306 305 305 305 305 304 304 303 302 302 301 301 300 299 298 298 296 294 292 291 289 287 286 285 284 283 282
316 316 314 314 314 314 313 312 311 310 309 308 308 307 307 307 307 306 306 306 305 305 304 304 303 302 301 301 300 299 299 297 295 293 292 290 288 287 286 285 284 283
317 316 315 315 315 314 313 313 312 311 310 309 309 309 309 308 308 308 307 307 306 306 305 305 304 303 302 301 301 300 299 298 296 295 292 290 289 288 287 286 286 285
318 316 316 316 316 315 314 313 313 312 311 310 310 310 310 309 309 309 308 307 307 307 306 306 304 303 303 302 302 301 300 298 297 296 293 291 290 289 288 287 287 285
318 317 317 317 316 316 315 314 314 313 312 312 311 311 311 310 310 310 309 308 308 308 307 306 305 304 304 303 303 302 301 299 298 296 293 292 290 289 288 288 287 286
318 318 318 317 316 316 315 315 314 313 313 313 313 312 312 311 311 310 310 309 309 308 308 307 305 305 305 304 304 303 302 300 298 296 294 292 291 290 289 288 288 287
318 318 318 317 317 316 316 315 315 314 314 314 314 313 313 312 312 311 310 310 309 309 308 307 306 306 306 305 304 304 303 301 299 296 294 292 291 290 290 290 289 288
319 319 318 317 317 317 316 316 315 315 315 315 315 314 314 313 313 312 311 311 310 310 309 308 307 306 306 306 305 305 304 302 299 296 294 292 291 291 291 291 290 288
319 319 318 317 317 317 317 316 316 316 316 316 316 315 314 314 313 313 312 311 311 310 310 309 308 307 307 307 306 306 304 302 299 296 294 292 291 291 292 292 290 288
319 319 318 318 318 318 317 317 317 317 317 317 316 316 315 315 314 314 313 312 311 311 310 310 309 308 308 308 307 306 305 302 299 296 294 293 292 292 292 291 290 289
320 319 319 318 319 318 318 318 317 318 318 317 317 316 316 316 315 314 314 313 312 311 310 310 310 309 309 309 308 307 305 302 299 297 295 293 293 293 292 291 290 289
320 320 319 319 319 319 319 318 318 318 318 318 317 317 317 317 316 315 315 314 312 311 311 311 311 310 310 310 309 307 305 302 300 297 295 294 294 293 292 291 290 289
321 320 320 320 320 320 319 319 319 319 319 318 318 318 318 317 317 316 316 314 312 311 311 312 312 311 311 310 309 307 305 303 300 297 296 295 294 293 293 292 291 289